TimePST,TemperatureF,Dew PointF,Humidity,Sea Level PressureIn,VisibilityMPH,Wind Direction,Wind SpeedMPH,Gust SpeedMPH,PrecipitationIn,Events,Conditions,WindDirDegrees,DateUTC
12:43 AM,41.0,33.8,76,30.34,10.0,SE,6.9,-,N/A,,Mostly Cloudy,130,2012-02-23 08:43:00
12:53 AM,42.1,34.0,73,30.36,10.0,SE,6.9,-,N/A,,Mostly Cloudy,130,2012-02-23 08:53:00
1:53 AM,42.1,34.0,73,30.39,10.0,SE,6.9,-,N/A,,Overcast,140,2012-02-23 09:53:00
2:53 AM,42.1,34.0,73,30.39,10.0,SE,8.1,-,N/A,,Overcast,140,2012-02-23 10:53:00
3:53 AM,42.8,33.8,70,30.38,10.0,SSE,6.9,-,N/A,,Overcast,150,2012-02-23 11:53:00
4:53 AM,42.1,34.0,73,30.40,10.0,SSE,5.8,-,N/A,,Overcast,150,2012-02-23 12:53:00
5:53 AM,42.1,33.1,70,30.40,10.0,SSE,5.8,-,N/A,,Overcast,150,2012-02-23 13:53:00
6:53 AM,42.1,34.0,73,30.40,10.0,SE,6.9,-,N/A,,Overcast,140,2012-02-23 14:53:00
7:53 AM,42.1,34.0,73,30.40,10.0,SE,4.6,-,N/A,,Overcast,140,2012-02-23 15:53:00
8:53 AM,43.0,34.0,71,30.41,10.0,SSE,3.5,-,N/A,,Overcast,150,2012-02-23 16:53:00
9:53 AM,43.0,34.0,71,30.42,10.0,SSE,5.8,-,N/A,,Overcast,160,2012-02-23 17:53:00
10:53 AM,44.1,34.0,68,30.43,10.0,Calm,Calm,-,N/A,,Overcast,0,2012-02-23 18:53:00
11:53 AM,45.0,34.0,65,30.42,10.0,South,4.6,-,N/A,,Overcast,170,2012-02-23 19:53:00
12:53 PM,46.0,34.0,63,30.41,10.0,SE,3.5,-,N/A,,Overcast,130,2012-02-23 20:53:00
12:56 PM,46.4,33.8,62,30.39,10.0,Calm,Calm,-,N/A,,Overcast,0,2012-02-23 20:56:00
1:53 PM,48.0,33.1,56,30.39,10.0,South,6.9,-,N/A,,Overcast,190,2012-02-23 21:53:00
2:53 PM,48.0,32.0,54,30.38,10.0,South,5.8,-,N/A,,Overcast,180,2012-02-23 22:53:00
3:53 PM,48.0,32.0,54,30.37,10.0,SSW,9.2,-,N/A,,Overcast,200,2012-02-23 23:53:00
4:53 PM,46.9,33.1,59,30.36,10.0,SSE,9.2,-,N/A,,Overcast,160,2012-02-24 00:53:00
5:53 PM,46.0,35.1,66,30.35,10.0,South,4.6,-,N/A,,Overcast,180,2012-02-24 01:53:00
6:53 PM,45.0,35.1,68,30.35,10.0,South,4.6,-,N/A,,Overcast,170,2012-02-24 02:53:00
7:53 PM,44.1,34.0,68,30.35,10.0,South,4.6,-,N/A,,Scattered Clouds,170,2012-02-24 03:53:00
8:53 PM,44.1,33.1,65,30.35,10.0,SSE,5.8,-,N/A,,Overcast,160,2012-02-24 04:53:00
9:53 PM,43.0,34.0,71,30.33,10.0,SSE,8.1,-,N/A,,Mostly Cloudy,150,2012-02-24 05:53:00
10:53 PM,43.0,34.0,71,30.32,10.0,SSE,6.9,-,N/A,,Overcast,160,2012-02-24 06:53:00
11:53 PM,43.0,34.0,71,30.31,10.0,SSE,5.8,-,N/A,,Overcast,160,2012-02-24 07:53:00